Wind_Speed
3 4 7 6 2 4 1 10 7 7 8 6 7 14 8 8 5 4 22 22 22 21 20 19 19 19 17 16 14 14 13 12 10 10 9 10 9 9 9 6 4 6 10 5 13 9 8 8 8
4 4 4 5 4 9 4 12 7 3 4 4 3 4 4 6 4 7 22 24 22 20 18 19 19 18 17 16 13 12 13 11 10 9 9 9 8 7 5 4 6 10 13 13 13 9 8 8 9
8 9 4 4 5 15 9 9 10 8 3 1 3 3 1 3 9 20 19 23 23 21 18 19 18 18 16 15 13 13 12 11 9 8 8 6 6 5 5 4 6 9 12 14 8 5 6 8 8
7 8 2 6 4 6 10 10 6 4 9 2 6 5 6 11 11 14 20 21 22 20 18 18 17 16 16 15 13 11 11 11 9 8 6 6 5 4 4 4 6 8 9 10 8 7 5 7 7
10 3 11 7 5 10 12 9 2 7 6 5 10 9 6 10 9 15 16 20 21 19 19 18 17 16 15 14 13 12 10 10 9 7 7 5 5 4 3 3 4 6 8 8 9 8 7 7 7
11 7 7 4 5 11 11 10 5 8 9 10 8 12 1 4 6 11 16 19 20 17 18 18 17 16 15 14 12 11 10 10 8 7 5 4 7 6 5 5 3 3 5 6 8 6 5 5 5
8 9 8 1 10 8 12 7 5 6 8 9 11 9 3 6 8 10 15 18 20 18 17 17 17 16 14 14 12 11 11 9 7 4 3 5 5 6 8 8 6 4 3 3 5 5 5 2 1
7 6 4 6 9 12 9 7 3 1 5 9 9 10 2 3 9 11 17 21 19 19 18 17 16 15 14 13 12 11 9 8 5 3 2 3 4 6 7 12 9 7 4 3 3 4 4 2 2
5 9 7 11 12 11 4 9 4 1 2 8 7 4 2 2 10 12 15 18 20 20 19 18 16 15 14 13 11 10 8 6 4 3 3 3 3 4 3 11 10 8 5 4 4 4 3 2 1
2 5 12 11 11 7 8 1 2 2 4 8 9 6 4 3 8 9 9 11 15 17 18 17 17 16 14 12 11 10 8 6 5 3 2 2 5 6 2 8 8 7 4 6 6 5 4 2 2
7 12 8 6 9 9 10 6 3 3 5 10 13 10 6 4 7 11 8 6 6 15 17 17 17 17 16 13 12 11 10 7 5 4 2 3 5 7 5 6 5 3 4 5 6 7 5 5 5
7 6 7 9 8 14 11 9 12 4 5 8 13 11 7 5 6 11 8 6 10 13 15 17 16 17 16 15 14 14 11 8 7 4 3 3 5 6 5 4 3 1 3 4 5 4 6 6 3
8 7 9 6 7 10 5 13 9 6 3 2 8 8 4 2 5 10 10 6 7 10 14 14 16 17 17 17 16 15 13 10 6 5 5 1 4 5 5 4 4 1 3 4 3 3 6 6 3
3 4 4 2 12 6 9 10 10 9 5 10 3 2 6 3 5 7 11 9 9 7 9 11 14 18 18 17 16 15 14 10 8 8 7 2 1 2 3 0 3 3 5 5 5 2 6 6 5
8 8 8 10 7 9 9 11 13 11 8 13 8 4 2 3 3 4 12 10 7 7 12 8 12 16 17 18 17 14 12 8 10 8 8 3 2 2 2 2 2 4 4 6 5 5 7 6 8
5 8 11 16 16 13 13 13 18 12 12 14 12 11 11 5 3 5 7 12 10 10 10 9 11 14 15 14 13 11 7 10 7 3 5 5 1 3 2 2 3 5 4 4 3 7 7 7 7
10 14 17 13 19 17 13 16 15 14 14 11 12 11 14 11 6 6 9 11 13 10 8 11 13 11 12 14 12 13 11 15 10 4 7 6 4 4 3 3 4 8 6 5 4 8 10 8 7
10 12 8 17 11 20 16 18 20 17 13 7 9 16 13 18 23 17 9 9 15 14 17 12 16 15 17 17 16 16 17 16 17 13 10 11 10 9 6 6 8 8 8 8 6 9 12 9 5
14 18 12 12 16 18 16 17 19 18 15 9 13 17 12 23 28 17 16 18 16 14 16 15 16 22 21 20 20 19 21 19 18 13 16 11 11 12 9 8 9 11 11 10 9 8 10 11 8
17 22 21 18 9 11 11 15 9 11 14 12 14 8 18 14 21 17 11 11 10 17 17 18 17 19 22 26 20 23 22 23 19 21 17 19 14 13 12 13 14 13 12 12 12 9 12 11 7
21 22 16 4 12 12 3 7 8 12 14 12 16 16 17 15 15 20 9 3 8 10 15 17 20 19 24 22 21 26 29 28 24 17 15 17 16 14 13 15 16 16 13 17 16 14 14 11 9
19 8 9 4 6 0 9 4 7 6 14 14 16 13 17 19 15 16 6 2 2 10 11 14 19 23 21 22 21 25 33 27 29 20 19 18 15 14 12 13 17 15 14 15 13 19 15 11 7
15 12 13 7 3 6 4 3 11 17 15 16 12 9 11 17 8 4 4 5 3 3 7 13 20 20 25 24 21 22 26 22 18 20 20 22 16 14 14 17 17 17 13 15 15 18 15 14 11
15 17 9 9 4 1 6 5 14 12 5 9 11 10 9 5 3 4 6 7 8 7 7 9 13 16 19 19 18 18 18 16 14 22 20 16 15 17 16 15 15 16 14 15 19 19 16 17 15
18 18 1 3 2 6 4 4 18 12 4 6 7 12 10 4 7 10 11 7 10 7 8 8 9 15 15 17 15 14 13 16 21 19 18 18 17 14 15 15 12 11 12 17 22 22 19 20 17
12 16 8 4 3 7 3 7 9 4 2 6 7 18 15 15 4 11 16 8 10 7 8 7 6 9 11 12 14 17 19 19 15 15 14 15 14 13 12 7 9 13 15 19 20 22 20 19 18
17 22 14 19 10 2 5 6 4 7 9 10 13 17 22 18 8 8 11 15 14 12 7 6 8 10 14 16 17 16 17 17 17 12 10 13 12 13 8 11 8 13 16 20 21 20 18 18 18
18 13 13 13 2 3 4 7 13 2 8 8 10 11 12 14 10 9 16 17 10 13 8 11 12 12 13 13 13 14 15 15 16 11 6 6 9 7 3 4 4 1 14 13 19 19 17 16 16
22 17 15 11 6 6 3 9 13 10 11 11 10 2 4 5 8 8 16 16 8 12 9 15 14 14 13 13 12 12 13 15 15 10 6 6 6 6 3 6 3 2 14 11 16 17 16 16 16
31 24 24 21 12 7 7 5 16 13 4 7 5 6 5 5 9 10 14 15 11 8 8 12 13 13 14 13 12 12 14 13 11 9 6 3 5 5 3 3 4 9 12 7 14 13 12 13 14
Wind_Direction
339 4 19 39 235 182 165 120 107 128 138 75 132 152 143 136 170 192 156 156 155 158 155 159 159 156 154 153 148 149 150 151 150 143 140 134 131 135 141 146 95 59 49 90 156 136 132 120 111
1 1 352 35 81 239 254 157 163 179 132 113 96 154 273 210 182 171 158 155 157 160 157 160 159 157 157 154 151 155 156 155 155 150 148 142 141 134 130 117 88 62 57 90 132 134 132 124 124
26 358 350 352 157 191 135 131 145 121 93 12 329 116 132 149 122 151 160 155 158 160 159 160 159 159 160 158 159 161 159 158 158 153 156 145 137 128 115 90 77 69 71 85 104 122 140 135 135
347 316 221 126 236 247 141 144 177 174 161 312 31 38 84 103 114 162 159 158 161 163 162 162 161 162 163 163 164 168 162 162 165 161 159 154 138 126 113 98 81 73 73 68 86 79 111 139 141
29 56 132 161 168 127 113 160 158 60 64 31 2 8 44 104 125 158 161 157 167 167 167 167 165 168 166 169 170 170 169 170 178 176 176 188 175 171 152 119 99 88 81 73 76 81 86 118 144
33 7 95 41 146 94 89 133 131 51 70 48 9 7 2 138 123 133 167 167 171 176 170 174 173 174 172 172 175 175 173 177 185 192 188 240 236 216 199 179 170 116 96 93 85 86 85 94 129
339 332 329 80 134 117 116 113 175 84 62 22 0 354 324 181 147 139 159 179 176 182 180 181 181 180 179 179 181 183 181 181 191 219 240 289 275 233 242 215 181 165 147 122 113 107 106 120 239
80 305 128 123 123 129 99 101 134 247 26 14 359 341 12 158 150 156 161 182 185 188 185 187 186 189 188 186 185 191 188 190 186 183 205 311 304 274 243 212 205 203 179 165 154 152 140 137 215
212 102 162 129 130 119 128 124 169 224 38 22 356 6 28 178 168 177 177 182 189 193 192 190 190 195 196 192 191 199 198 197 193 211 288 339 354 344 186 197 207 218 222 223 193 193 175 148 14
189 167 147 133 128 128 155 336 257 281 57 11 357 339 284 237 196 212 185 190 199 199 197 191 195 198 203 199 197 200 207 204 199 215 257 53 50 66 23 187 198 225 238 238 231 227 229 217 266
85 78 169 129 146 119 173 171 55 74 15 30 6 349 297 249 214 218 217 179 183 213 208 202 198 202 205 201 206 205 210 212 203 190 147 83 61 83 117 149 186 230 241 237 241 239 228 211 220
145 104 134 106 121 144 151 147 112 82 48 24 353 1 314 270 254 236 244 201 178 196 211 208 207 207 209 205 209 210 215 219 212 182 150 111 85 67 105 128 151 177 258 247 236 203 221 200 316
196 165 128 123 150 192 258 181 217 322 321 2 344 0 17 278 240 245 262 252 244 207 209 217 217 217 215 212 213 219 219 218 216 211 186 186 96 103 82 76 83 68 267 265 228 196 195 194 207
144 174 197 260 202 207 208 260 231 279 242 310 216 30 18 55 252 256 284 272 277 259 218 228 229 227 223 227 224 223 229 225 208 206 210 156 87 13 335 171 348 354 337 323 261 225 194 179 182
171 162 231 215 209 226 222 256 261 235 282 274 253 240 111 71 29 289 281 287 304 290 278 245 241 235 223 227 230 233 216 221 221 216 204 187 133 99 20 279 28 352 328 337 252 220 212 183 172
229 186 216 227 225 234 223 280 216 243 285 304 281 268 291 242 192 303 290 280 280 274 268 264 247 242 241 246 247 238 213 214 201 240 221 209 194 227 291 281 319 323 314 332 257 231 219 205 204
203 219 217 239 231 236 220 280 259 253 265 299 294 268 294 274 240 238 286 268 283 280 299 260 258 255 257 257 258 252 230 230 217 232 265 265 236 256 267 314 276 292 316 300 304 238 206 213 216
201 224 239 273 195 219 238 268 260 272 246 303 259 253 267 262 247 248 259 270 271 286 273 277 266 262 267 265 261 252 239 250 233 226 244 258 257 255 253 257 278 287 272 266 253 236 221 218 211
273 290 262 245 217 234 257 255 265 291 240 250 272 253 270 286 280 248 248 268 268 268 270 275 280 265 261 259 258 261 252 268 245 242 236 245 262 265 255 260 281 267 264 254 241 247 216 220 215
268 282 268 258 231 224 247 247 275 266 242 251 256 220 269 287 356 53 201 208 245 263 263 262 278 269 261 257 253 262 261 257 247 238 257 233 252 253 251 267 271 260 256 256 257 234 211 224 209
273 284 242 248 176 203 287 292 263 235 234 233 281 262 276 301 295 345 288 170 198 222 260 262 263 262 259 262 255 254 254 246 253 237 232 219 226 238 243 262 262 266 259 255 245 214 212 210 204
270 266 238 173 137 123 11 325 337 276 229 242 283 264 277 299 310 345 333 313 279 212 230 256 249 251 249 258 247 248 257 255 247 226 222 218 214 226 248 258 261 268 264 249 235 202 206 194 191
263 264 262 265 293 250 306 316 310 353 281 265 266 268 306 298 329 318 292 293 302 287 243 245 251 253 259 263 248 236 256 265 258 208 207 206 220 233 248 257 261 265 262 248 208 200 201 189 183
262 265 242 274 242 155 251 319 302 331 233 275 308 272 277 304 37 35 243 324 318 305 277 259 244 255 262 256 244 237 236 235 224 199 187 206 225 238 242 255 259 254 242 231 210 198 197 196 189
244 243 262 333 322 215 241 283 283 301 283 265 235 246 231 242 350 335 325 314 329 299 290 267 253 256 246 236 225 221 207 181 167 188 195 210 221 233 241 253 243 248 243 209 208 203 201 198 196
239 233 201 202 214 257 256 226 306 243 221 317 251 214 231 225 257 335 344 313 335 317 273 249 250 238 210 188 177 170 164 166 172 183 199 212 223 222 247 267 275 252 219 207 194 195 194 194 199
248 227 237 233 262 228 257 266 290 345 242 289 206 214 218 213 247 285 315 343 331 334 289 249 216 178 157 160 160 164 170 166 158 180 194 231 231 228 249 285 289 251 223 195 186 186 189 198 203
241 220 213 228 199 232 268 255 245 208 242 253 214 207 214 211 242 275 335 337 329 333 278 235 204 176 175 181 180 167 171 172 179 173 179 188 210 191 232 355 19 52 194 187 179 180 188 196 195
221 226 229 238 233 150 167 245 255 236 262 232 245 280 252 251 280 303 334 326 315 311 241 202 200 187 183 182 188 181 176 179 180 175 141 126 164 212 249 313 1 31 155 164 181 173 183 193 200
227 229 227 244 247 256 245 226 188 209 210 253 219 230 251 258 289 330 335 314 311 303 203 194 202 208 198 200 201 191 181 178 172 165 181 163 101 147 112 61 136 99 127 141 160 158 181 194 206
Height
3169 3169 3171 3170 3172 3169 3167 3168 3167 3167 3165 3166 3168 3168 3170 3168 3168 3172 3169 3171 3174 3177 3179 3181 3184 3186 3188 3191 3193 3193 3194 3195 3197 3199 3199 3200 3201 3201 3202 3202 3202 3201 3200 3197 3199 3200 3201 3202 3203
3169 3171 3173 3171 3171 3169 3170 3170 3167 3168 3168 3168 3169 3169 3169 3170 3170 3169 3169 3172 3175 3178 3180 3183 3185 3187 3189 3191 3193 3195 3196 3196 3198 3200 3201 3201 3201 3202 3203 3203 3202 3202 3201 3199 3201 3201 3202 3202 3203
3172 3172 3173 3172 3170 3166 3170 3170 3169 3170 3170 3169 3170 3171 3170 3171 3171 3172 3173 3173 3176 3179 3182 3184 3187 3188 3190 3192 3194 3196 3197 3198 3198 3200 3201 3202 3202 3202 3203 3204 3204 3203 3203 3203 3203 3203 3203 3203 3203
3173 3173 3174 3170 3168 3170 3170 3172 3169 3165 3168 3170 3170 3171 3172 3172 3174 3174 3174 3176 3178 3180 3183 3185 3187 3189 3191 3193 3195 3197 3198 3200 3200 3200 3201 3201 3202 3202 3203 3204 3204 3204 3204 3204 3203 3203 3203 3203 3204
3172 3171 3173 3163 3172 3169 3170 3172 3171 3170 3169 3169 3169 3168 3169 3171 3173 3175 3176 3177 3179 3181 3183 3186 3189 3190 3192 3194 3196 3198 3199 3200 3200 3201 3200 3200 3201 3201 3201 3203 3204 3204 3204 3204 3204 3203 3203 3204 3204
3172 3173 3174 3172 3171 3172 3171 3172 3173 3171 3172 3171 3171 3169 3169 3171 3174 3176 3177 3178 3180 3183 3185 3187 3188 3191 3193 3195 3197 3198 3199 3199 3200 3200 3200 3200 3199 3199 3200 3201 3203 3204 3204 3204 3205 3204 3204 3203 3204
3173 3173 3173 3173 3173 3174 3173 3173 3173 3172 3173 3173 3171 3170 3171 3171 3174 3176 3178 3179 3180 3183 3185 3187 3189 3191 3193 3195 3197 3198 3199 3199 3199 3200 3200 3200 3198 3198 3198 3201 3201 3202 3203 3203 3204 3205 3204 3204 3202
3174 3173 3172 3173 3175 3174 3175 3174 3173 3173 3173 3173 3172 3171 3170 3171 3173 3175 3176 3178 3180 3182 3185 3187 3189 3191 3192 3195 3197 3198 3198 3199 3199 3199 3199 3198 3198 3196 3195 3198 3200 3201 3201 3202 3202 3203 3204 3204 3203
3174 3174 3171 3174 3176 3175 3174 3174 3176 3175 3174 3173 3173 3173 3172 3172 3173 3175 3175 3177 3178 3181 3183 3186 3188 3191 3192 3194 3196 3198 3198 3199 3199 3199 3198 3198 3197 3194 3194 3196 3198 3199 3201 3201 3201 3201 3203 3204 3204
3174 3175 3175 3174 3176 3177 3176 3174 3176 3176 3176 3176 3175 3174 3173 3173 3174 3176 3178 3179 3179 3181 3183 3186 3187 3190 3192 3194 3195 3197 3198 3198 3199 3199 3198 3198 3197 3196 3194 3196 3197 3199 3199 3200 3200 3201 3201 3202 3203
3174 3176 3176 3175 3176 3176 3178 3178 3176 3178 3179 3179 3177 3175 3173 3174 3174 3176 3178 3180 3181 3183 3185 3185 3187 3189 3190 3193 3194 3196 3197 3198 3198 3198 3199 3198 3197 3197 3197 3196 3197 3198 3198 3199 3199 3199 3200 3201 3201
3174 3175 3176 3176 3176 3176 3178 3179 3178 3180 3182 3179 3175 3173 3172 3172 3173 3175 3176 3179 3182 3184 3185 3186 3188 3189 3190 3191 3193 3194 3195 3197 3197 3197 3198 3198 3197 3198 3197 3197 3197 3197 3198 3198 3197 3198 3198 3199 3199
3175 3175 3176 3177 3178 3177 3178 3177 3177 3181 3181 3177 3175 3174 3173 3173 3175 3175 3175 3178 3180 3183 3185 3187 3187 3188 3190 3190 3191 3192 3193 3195 3197 3197 3197 3198 3198 3198 3197 3197 3197 3197 3198 3198 3198 3198 3198 3198 3199
3176 3176 3176 3178 3178 3178 3178 3176 3177 3178 3180 3178 3176 3175 3175 3173 3174 3174 3174 3176 3178 3180 3183 3186 3187 3188 3189 3189 3190 3191 3191 3193 3195 3197 3196 3196 3197 3197 3197 3197 3197 3197 3196 3197 3197 3197 3197 3197 3198
3175 3175 3177 3177 3177 3178 3178 3178 3174 3176 3177 3176 3178 3178 3179 3179 3177 3176 3174 3175 3177 3179 3180 3184 3186 3188 3189 3189 3189 3190 3190 3192 3195 3195 3195 3196 3195 3196 3196 3196 3195 3195 3196 3197 3195 3195 3195 3196 3197
3171 3174 3175 3176 3176 3176 3179 3176 3169 3173 3172 3174 3177 3178 3178 3180 3179 3178 3175 3172 3175 3177 3179 3181 3183 3185 3187 3187 3188 3190 3191 3191 3192 3194 3194 3194 3194 3195 3194 3195 3194 3195 3195 3196 3195 3195 3194 3195 3195
3170 3171 3173 3173 3174 3176 3177 3175 3174 3173 3172 3175 3176 3178 3176 3177 3175 3175 3175 3173 3173 3176 3177 3178 3180 3182 3184 3185 3186 3186 3187 3188 3189 3189 3191 3192 3193 3194 3194 3193 3194 3194 3194 3195 3195 3194 3195 3194 3195
3168 3170 3171 3170 3172 3173 3174 3173 3175 3173 3174 3175 3178 3178 3178 3177 3172 3173 3177 3175 3173 3173 3176 3176 3176 3177 3179 3181 3182 3183 3184 3184 3185 3188 3190 3191 3192 3192 3192 3192 3192 3192 3192 3193 3193 3193 3194 3194 3194
3168 3170 3168 3168 3170 3171 3171 3172 3171 3172 3174 3176 3175 3174 3173 3168 3167 3159 3173 3171 3170 3168 3171 3172 3174 3174 3175 3177 3178 3180 3180 3180 3181 3183 3187 3190 3190 3190 3189 3190 3190 3190 3190 3190 3191 3192 3192 3193 3193
3166 3166 3166 3167 3167 3169 3170 3169 3169 3169 3169 3170 3171 3169 3166 3163 3162 3155 3158 3161 3162 3166 3168 3168 3170 3170 3170 3172 3175 3175 3176 3177 3176 3178 3183 3186 3187 3187 3187 3189 3189 3188 3189 3188 3188 3190 3190 3191 3192
3162 3161 3163 3165 3164 3168 3168 3168 3166 3167 3165 3167 3166 3164 3161 3161 3157 3158 3158 3155 3155 3159 3163 3165 3166 3166 3165 3166 3168 3169 3170 3171 3172 3174 3178 3181 3183 3184 3185 3186 3186 3184 3185 3184 3185 3187 3188 3189 3191
3160 3160 3162 3162 3164 3164 3164 3166 3164 3163 3164 3164 3163 3161 3160 3159 3158 3157 3156 3155 3154 3157 3158 3161 3162 3163 3161 3163 3163 3165 3164 3165 3167 3169 3173 3177 3180 3182 3181 3182 3181 3180 3180 3178 3181 3183 3186 3187 3188
3159 3158 3160 3161 3160 3161 3163 3163 3161 3161 3159 3160 3158 3158 3160 3157 3156 3154 3156 3157 3156 3156 3156 3158 3158 3158 3157 3159 3159 3161 3159 3162 3163 3164 3169 3172 3176 3177 3177 3178 3177 3175 3176 3175 3178 3181 3183 3185 3187
3155 3158 3158 3158 3158 3161 3160 3160 3156 3155 3153 3156 3157 3157 3158 3155 3156 3157 3158 3158 3155 3154 3153 3153 3154 3154 3154 3155 3155 3156 3157 3158 3160 3163 3165 3169 3172 3174 3175 3175 3174 3172 3172 3173 3176 3178 3181 3183 3186
3152 3154 3155 3159 3159 3159 3158 3160 3153 3151 3152 3154 3156 3157 3157 3155 3154 3155 3156 3157 3154 3151 3150 3150 3149 3150 3150 3151 3153 3153 3154 3156 3158 3161 3164 3166 3170 3171 3171 3170 3166 3167 3167 3169 3172 3175 3178 3180 3184
3149 3151 3152 3159 3162 3155 3156 3154 3151 3150 3150 3150 3151 3154 3154 3152 3154 3152 3151 3152 3151 3149 3147 3147 3146 3147 3148 3148 3150 3151 3154 3157 3159 3162 3163 3165 3166 3166 3168 3159 3162 3165 3164 3165 3168 3172 3175 3178 3181
3146 3147 3151 3151 3153 3154 3152 3151 3149 3147 3147 3147 3146 3148 3150 3151 3150 3148 3150 3149 3147 3144 3143 3145 3148 3148 3147 3149 3150 3152 3155 3157 3159 3159 3161 3163 3163 3163 3166 3165 3161 3160 3159 3160 3164 3169 3173 3177 3179
3142 3146 3147 3148 3151 3154 3150 3149 3145 3145 3143 3143 3144 3144 3146 3147 3148 3149 3149 3147 3145 3144 3143 3145 3148 3147 3148 3149 3150 3152 3154 3156 3158 3159 3160 3160 3160 3162 3163 3162 3160 3158 3158 3157 3163 3166 3171 3175 3178
3138 3140 3142 3145 3146 3148 3153 3146 3143 3143 3142 3141 3141 3141 3142 3143 3144 3145 3145 3146 3146 3145 3144 3145 3146 3146 3147 3148 3150 3151 3153 3154 3156 3158 3158 3159 3159 3160 3161 3160 3160 3158 3158 3158 3161 3163 3169 3173 3176
3132 3134 3136 3140 3143 3142 3142 3141 3138 3140 3139 3139 3139 3141 3140 3141 3142 3142 3141 3141 3142 3142 3141 3141 3142 3144 3145 3147 3148 3149 3151 3151 3154 3156 3157 3158 3160 3160 3160 3160 3160 3161 3161 3162 3161 3161 3168 3171 3174